TimeMST,TemperatureF,Dew PointF,Humidity,Sea Level PressureIn,VisibilityMPH,Wind Direction,Wind SpeedMPH,Gust SpeedMPH,PrecipitationIn,Events,Conditions,WindDirDegrees,DateUTC
12:00 AM,24.8,23.0,93,30.09,0.8,North,10.4,-,0.01,Snow,Light Snow,10,2011-12-01 07:00:00
12:23 AM,24.8,21.2,86,30.10,1.0,North,10.4,-,0.01,Snow,Light Snow,10,2011-12-01 07:23:00
12:32 AM,24.8,21.2,86,30.10,1.0,North,11.5,-,0.01,Snow,Light Snow,10,2011-12-01 07:32:00
12:53 AM,23.0,21.9,96,30.07,0.8,North,12.7,-,0.01,Snow,Light Snow,10,2011-12-01 07:53:00
1:03 AM,23.0,21.2,93,30.11,0.8,North,13.8,-,0.00,Snow,Light Snow,360,2011-12-01 08:03:00
1:21 AM,23.0,21.2,93,30.13,1.0,North,9.2,-,0.01,Snow,Light Snow,360,2011-12-01 08:21:00
1:29 AM,23.0,21.2,93,30.13,1.2,North,9.2,-,0.01,Snow,Light Snow,360,2011-12-01 08:29:00
1:53 AM,23.0,21.0,92,30.10,1.0,North,9.2,-,0.01,Snow,Light Snow,360,2011-12-01 08:53:00
2:50 AM,21.2,21.2,100,30.17,1.0,NNE,8.1,-,0.01,Snow,Light Snow,20,2011-12-01 09:50:00
2:53 AM,21.9,21.0,96,30.16,1.0,NNE,9.2,-,0.01,Snow,Light Snow,30,2011-12-01 09:53:00
3:07 AM,21.2,19.4,93,30.18,1.0,NNE,10.4,-,0.00,Snow,Light Snow,20,2011-12-01 10:07:00
3:17 AM,21.2,19.4,93,30.18,0.8,NNE,11.5,-,0.00,Snow,Light Snow,20,2011-12-01 10:17:00
3:36 AM,21.2,19.4,93,30.19,1.0,NNE,11.5,-,0.01,Snow,Light Snow,30,2011-12-01 10:36:00
3:53 AM,21.0,19.0,92,30.21,1.0,NNE,15.0,-,0.01,Snow,Light Snow,20,2011-12-01 10:53:00
4:53 AM,21.0,18.0,88,30.26,1.8,NNE,17.3,24.2,0.00,Snow,Light Snow,20,2011-12-01 11:53:00
5:00 AM,21.2,17.6,86,30.23,2.5,NNE,18.4,-,0.00,Snow,Light Snow,20,2011-12-01 12:00:00
5:29 AM,19.4,17.6,93,30.24,1.8,NNE,13.8,-,0.00,Snow,Light Snow,30,2011-12-01 12:29:00
5:40 AM,19.4,17.6,93,30.24,2.0,NNE,15.0,-,0.00,Snow,Light Snow,30,2011-12-01 12:40:00
5:53 AM,19.9,17.1,89,30.30,3.0,NNE,16.1,-,0.00,Snow,Light Snow,30,2011-12-01 12:53:00
6:12 AM,19.4,15.8,86,30.27,4.0,NNE,17.3,26.5,0.00,Snow,Light Snow,20,2011-12-01 13:12:00
6:51 AM,17.6,14.0,86,30.29,2.5,NNE,18.4,29.9,0.00,Snow,Light Snow,20,2011-12-01 13:51:00
6:53 AM,17.6,14.0,86,30.29,3.0,NNE,17.3,29.9,N/A,Snow,Light Snow,20,2011-12-01 13:53:00
7:53 AM,16.0,10.9,81,30.44,2.5,NNE,10.4,-,0.00,Snow,Light Snow,30,2011-12-01 14:53:00
8:06 AM,15.8,10.4,79,30.35,3.0,NNE,10.4,-,0.00,Snow,Light Snow,20,2011-12-01 15:06:00
8:20 AM,15.8,10.4,79,30.36,1.8,NNE,9.2,-,0.00,Snow,Light Snow,30,2011-12-01 15:20:00
8:28 AM,15.8,10.4,79,30.37,0.8,NNE,9.2,-,0.00,Snow,Light Snow,20,2011-12-01 15:28:00
8:37 AM,14.0,10.4,86,30.37,0.5,North,8.1,-,0.00,Fog-Snow,Snow,10,2011-12-01 15:37:00
8:51 AM,14.0,10.4,86,30.37,0.8,NNE,8.1,-,0.00,Snow,Light Snow,20,2011-12-01 15:51:00
8:53 AM,14.0,10.0,84,30.50,0.8,NNE,9.2,-,0.00,Snow,Light Snow,20,2011-12-01 15:53:00
9:05 AM,14.0,10.4,86,30.38,1.2,ENE,6.9,-,0.00,Snow,Light Snow,70,2011-12-01 16:05:00
9:21 AM,14.0,10.4,86,30.39,0.8,North,4.6,-,0.00,Snow,Light Snow,350,2011-12-01 16:21:00
9:35 AM,15.8,10.4,79,30.39,1.2,ENE,4.6,-,0.00,Snow,Light Snow,60,2011-12-01 16:35:00
9:53 AM,14.0,10.0,84,30.52,1.0,East,5.8,-,0.01,Snow,Light Snow,100,2011-12-01 16:53:00
10:07 AM,14.0,10.4,86,30.40,3.0,East,6.9,-,0.00,Snow,Light Snow,80,2011-12-01 17:07:00
10:21 AM,12.2,8.6,85,30.40,2.0,ENE,8.1,-,0.00,Snow,Light Snow,70,2011-12-01 17:21:00
10:24 AM,14.0,8.6,79,30.40,2.0,ENE,8.1,-,0.00,Snow,Light Snow,70,2011-12-01 17:24:00
10:36 AM,14.0,8.6,79,30.40,4.0,ENE,9.2,-,0.00,Snow,Light Snow,70,2011-12-01 17:36:00
10:53 AM,15.1,8.1,74,30.53,7.0,ENE,9.2,-,0.00,Snow,Light Snow,70,2011-12-01 17:53:00
11:53 AM,15.8,8.6,73,30.35,10.0,ENE,4.6,-,N/A,,Overcast,60,2011-12-01 18:53:00
12:53 PM,17.1,8.1,68,30.49,10.0,Calm,Calm,-,N/A,,Scattered Clouds,0,2011-12-01 19:53:00
1:11 PM,17.6,8.6,68,30.34,10.0,ENE,8.1,-,N/A,,Mostly Cloudy,60,2011-12-01 20:11:00
1:42 PM,17.6,8.6,68,30.33,10.0,NNE,6.9,-,N/A,,Scattered Clouds,30,2011-12-01 20:42:00
1:53 PM,17.6,8.6,68,30.33,10.0,NNE,8.1,-,N/A,,Clear,20,2011-12-01 20:53:00
2:37 PM,17.6,8.6,68,30.32,10.0,NE,10.4,-,0.00,,Overcast,40,2011-12-01 21:37:00
2:53 PM,15.1,8.1,74,30.47,10.0,ENE,5.8,-,0.00,,Scattered Clouds,60,2011-12-01 21:53:00
3:53 PM,12.9,8.1,81,30.48,10.0,SSW,5.8,-,N/A,,Clear,210,2011-12-01 22:53:00
4:53 PM,9.0,5.0,84,30.49,10.0,South,11.5,-,N/A,,Clear,170,2011-12-01 23:53:00
5:53 PM,8.1,5.0,87,30.48,10.0,SSE,11.5,-,N/A,,Clear,160,2011-12-02 00:53:00
6:53 PM,9.0,6.1,88,30.47,10.0,SSE,16.1,-,N/A,,Clear,160,2011-12-02 01:53:00
7:53 PM,3.9,1.9,91,30.49,10.0,South,10.4,-,N/A,,Clear,180,2011-12-02 02:53:00
8:53 PM,-0.9,-2.9,91,30.50,10.0,South,11.5,-,N/A,,Clear,190,2011-12-02 03:53:00
9:53 PM,-0.4,-2.2,92,30.21,10.0,SSW,6.9,-,N/A,,Clear,200,2011-12-02 04:53:00
10:53 PM,-2.0,-2.9,96,30.45,10.0,WSW,4.6,-,N/A,,Clear,250,2011-12-02 05:53:00
11:34 PM,-4.0,-5.8,92,30.16,1.8,SW,5.8,-,N/A,,Partly Cloudy,230,2011-12-02 06:34:00
11:53 PM,-7.1,-9.0,91,30.43,2.5,SW,6.9,-,N/A,,Clear,230,2011-12-02 06:53:00